Погода в Кутаиси

Погода в Кутаиси : погода сейчас, прогноз погоды и архив. Всё, что Вы хотите узнать о погоде в Кутаиси!

Поиск расширенной информации на нашем сайте:

Другие новости

Новости СМИ2

Главная страница сайта

Новости сайта

03.07.2017

Напоминаем, что на нашем специализированном сайте Метеоцентр.Азия вы можете получить высокодетализированные автоматические прогнозы погоды по пунктам России, СНГ и мира в авиационном формате (включающие направление и скорость ветра, видимость, явления погоды, количество и форму облачности, нижнюю и верхнюю границу облачности).

Рекомендуем: Киноманы могут смотреть ужасы онлайн бесплатно в хорошем качестве

Погода в Кутаиси - сегодня

Время (UTC), дата Ветер
(°,м/с) 
Видим.   Явления Облачность Т
(°С)
Тd
(°С)
f(%) Тe
(°С)
Pmin
(гПа)
dP
(гПа)
Po
(мм)
O2
(г/м3)
Тmin Tmax R s Состояние
почвы
03 18.11.17 090 (В) 13  10 км    ясно 
+16 +6.1 52 +15  1019.4  5.7  754  286           
09 18.11.17 090 (В) 12  20000 м    ясно 
+19.6 +9 50 +19  1018.9  -0.6  754  282           
12 18.11.17 110 (В) 14  н/о    н/о 
+20 +5.6 39 +20  1017.7  -1.7  753  282           
21 18.11.17 090 (В) 10  10 км    ясно 
+16.4 +5.9 50 +15  1016.3  -0.4  752  285           
00 19.11.17 090 (В) 10  10 км    ясно 
+16.3 +5.5 49 +15  1015.2  -1.1  751  285           
03 19.11.17 090 (В) 10  10 км    4/0 средняя 
[Ac trans]
+16.4 +5.3 48 +15  1014.4  -0.8  751  284           
09 19.11.17 090 (В) 20000 м    9/0 средняя 
[Ac trans]
+20.4 +7.1 42 +20  1013.3  -1.3  750  280           
12 19.11.17 090 (В) 20000 м    8/0 средняя 
[Ac trans]
+22.4 +7.4 38 +22  1012.3  -0.9  749  278           
21 19.11.17 090 (В) 10 км    10/6 1000 м средняя 
[Sc|As op]
+15.4 +7.8 60 +16  1013.8  750  285           
00 20.11.17 090 (В) 10 км    9/6 1000 м средняя 
[Sc|Ac trans]
+17.4 +8 54 +18  1013.3  -0.4  750  283           
09 20.11.17 090 (В) 20000 м    3/0 средняя 
[Ac trans]
+21.2 +10.4 50 +23  1011.4  -1.7  749  278           
12 20.11.17 090 (В) 20000 м    4/0 средняя 
[Ac trans]
+21.8 +8.1 41 +22  1009.8  -1.6  747  278           
15 20.11.17 090 (В) 10 км    4/3 1500 м средняя 
[Sc|Ac trans]
+18.6 +7.4 48 +19  1009  -0.9  747  280    +21.8       
18 20.11.17 090 (В) 10 км    4/3 1500 м средняя 
[Sc|Ac trans]
+17.6 +6.8 49 +18  1007.9  -1.1  746  281    +21.8       
21 20.11.17 090 (В) 10 км    3/0 средняя 
[Ac trans]
+18 +6.8 48 +18  1006.7  -1.2  745  280           
00 21.11.17 090 (В) 10 км    4/0 средняя 
[Ac trans]
+18.7 +7.3 47 +19  1005.2  -1.4  744  279           
09 21.11.17 090 (В) 10  20000 м    8/4 1500 м средняя 
[Sc|Ac trans]
+21.6 +8.5 43 +22  1000.5  -1.7  740  275           
12 21.11.17 090 (В) 10  20000 м    10/5 1500 м средняя 
[Sc|As op]
+21.8 +8.1 41 +22  998.7  -1.7  739  274           
21 21.11.17 240 (ЮЗ) 10 км  в посл. час ливневой дождь  10/6 600 м средняя 
[Sc|As op]
+8.8 +6.2 84 +6  1011.8  3.5  748  291           
00 22.11.17 240 (ЮЗ) 10 км  слаб. ливневой дождь  10/8 600 м кучево-дожд., средняя 
[Cb cap|As op]
+7.8 +7 95 +6  1012.6  0.8  749  292           
03 22.11.17 240 (ЮЗ) 10 км  в посл. час ливневой дождь  10/6 600 м средняя 
[Sc|As op]
+6.4 +5 91 +4  1013.8  1.1  750  294      10     
09 22.11.17 270 (З) 20000 м  {ливн. осадки}  9/5 1500 м средняя 
[Sc|Ac trans]
+7.6 +4.1 78 +5  1015  -0.2  751  294           
12 22.11.17 240 (ЮЗ) 20000 м    8/5 1500 м средняя 
[Sc|Ac trans]
+6.4 +2.8 78 +4  1016  752  295           
18 22.11.17 240 (ЮЗ) 10 км    9/6 1000 м средняя 
[Sc|Ac trans]
+4.5 +2.5 87 +4  1017.4  0.6  752  298    +7.6     
21 22.11.17 240 (ЮЗ) 10 км  слаб. ливневой дождь  10/8 600 м кучево-дожд., средняя 
[Cb cap|As op]
+4 +3 93 +4  1016.8  -0.6  752  298           
Время (UTC), дата Ветер
(°,м/с) 
Видим.   Явления Облачность Т
(°С)
Тd
(°С)
f(%) Тe
(°С)
Pmin
(гПа)
dP
(гПа)
Po
(мм)
O2
(г/м3)
Тmin Tmax R s Состояние
почвы

Для получения пояснительной информации подведите курсор к названию столбца.

ПОГОДА в Кутаиси - архив

Всё, что Вы хотите узнать о погоде в Кутаиси - удобно и подробно!

Выберите нужную дату (начиная с 1 января 2015* года) и нажмите кнопку "Найти".
Будут отображены архивные сводки погоды по пункту Кутаиси, начиная с указанной даты.


Отображать данные в формате CSV (для использования в таблицах Excel)


Внимание! Наш архив погоды предназначен исключительно для личного некоммерческого использования в познавательных целях. Если Вам необходимы официальные справки о состоянии погоды (для производственных, юридических, коммерческих и т.п. целей), обращайтесь в органы Росгидромета.

*Примечание: данная дата относится к архиву по метеостанциям СССР (Россия, СНГ, Балтия).
Архив по метеостанциям Зарубежной Европы и Азии (кроме Китая) хранится 10 дней, по другим регионам земного шара (Китай, Африка, Америка, Австралия, Океания) - 1 день.

Кутаиси - район местоположения метеостанции


Название, широта, долгота, высота метеостанции:
Кутаиси 42.3°ш. 42.6°д. 116 м над ур. моря [Грузия]

Дополнительная информация

В oтличие oт бoльшинства пoгoдных сайтoв мы публикуем пoдрoбную метеoинфoрмацию в детальнoм прoфессиoнальнoм фoрмате.

Характеристики температуры и влажнoсти вoздуха измеряются на высoте 2 м в тени вдали oт зданий и деревьев.
Скoрoсть ветра измеряется на высoте 10 м (на урoвне рoста челoвека скoрoсть ветра ниже в 1.5-2 раза). Если метеoстанция нахoдится в гoрoде или в лесу, тo скoрoсть ветра занижена на 2-4 м/с пo сравнению с oткрытым местoм. Скoрoсть ветра над акватoриями крупных рек и oзёр, а также на вершинах хoлмoв на 2-5 м/с выше, чем в oбычных услoвиях.
Атмoсфернoе давление в разных тoчках местнoсти мoжет значительнo oтличаться oт давления на метеoстанции, в зависимoсти oт услoвий рельефа (при пoдъёме на 10 м давление пoнижается примернo на 1 мм рт.ст.).